Weather in Pershotravneve

Ukraine / Dnipropetrovsk Region     47°49′57″N   36°19′11″E
В апреле 2022 года жителям России запретили посещать сайт meteo.paraplan.net по решению Генеральной прокуратуры. Аудитория сайта уменьшилась в 10 раз. Владельцы сайта не видят смысла в поддержке погодного сервера в таких условиях. Сайт будет закрыт в октябре.
temp.,
°C
wind,
m/s
gust,
m/s
humid.,
%
clouds,
%
prec.,
mm/h
press.,
hPa
HPBL,
m
30 september, fri
fri3000:00+16sse3680100 0.0 1015121
03:00+15sse3778100 0.0 1015134
06:00+15se498391 0.0 1015164
09:00+19sse6107290 0.0 1016447
12:00+25s564778 0.0 10161540
15:00+27s5740100 0.0 10152433
18:00+21s4867100 1.6 1017260
21:00+19sse4108234 1.9 1018260
1 october, sat
sat100:00+17s38875 0.0 1018171
03:00+17ssw35905 0.1 101987
06:00+16ssw349136 0.0 101964
09:00+20sw357113 0.0 1019291
12:00+25sw454678 0.0 1019880
15:00+27sw5637100 0.0 10171995
18:00+24wsw334895 0.0 101734
21:00+20ssw496871 0.0 1016193
2 october, sun
sun200:00+19ssw41073100 0.0 1015225
03:00+18s3675100 0.0 1014126
06:00+18sse41075100 0.0 1012269
09:00+21ssw596580 0.0 1011477
12:00+24ssw4649100 0.0 10091370
15:00+21sw6765100 0.7 1006795
18:00+18sse41188100 2.4 1004799
21:00+17ssw71289100 6.5 1002834
3 october, mon
mon300:00+15wnw5993100 6.1 1001519
03:00+14wnw7108693 8.7 1002577
06:00+13w4788100 0.1 1004691
09:00+11wnw6983100 1.1 1007641
12:00+15w5763100 0.2 10091244
15:00+16w7855100 0.7 10091735
18:00+13w486639 0.2 1012244
21:00+11wsw368131 0.3 1014168
4 october, tue
tue400:00+10wsw358389 0.0 1015120
03:00+10wsw36846 0.1 1016228
06:00+8wsw33925 0.0 101768
09:00+12wsw467813 0.0 1018557
12:00+15wsw575240 0.0 10181583
15:00+17wsw574237 0.0 10182065
18:00+14wnw365381 0.0 1019127
21:00+12w226062 0.0 102027